Wind_Speed
39 39 37 36 35 35 35 34 35 36 38 42 44 44 42 39 37 37 36 33 32 30 28 25 22 22 24 27 29 20 17 19 18 19 20 19 19 20 23 26 28 29 28 27 28 30 33 35 34 31 29 26 23 20 18 16 14 12 11 10 10 10 9 6 5 5 5 6 6 5 4 5 6 6 6 6 6 7 8 8 7 8 8 7 7 8 7 7
39 38 37 36 35 35 34 34 34 35 36 40 43 44 43 42 40 38 37 35 33 31 29 26 23 22 22 22 25 23 20 20 20 20 19 19 21 24 27 28 28 28 28 28 29 31 34 35 34 31 29 26 23 20 18 16 15 14 12 11 10 9 8 7 6 5 5 7 7 6 5 4 5 7 7 7 6 7 8 7 7 7 7 7 7 8 8 7
39 37 36 35 35 34 34 34 35 35 35 37 40 42 44 44 43 40 39 37 36 34 31 28 25 23 23 23 24 25 23 22 22 19 19 21 24 26 28 30 29 28 28 28 29 32 33 34 33 31 28 25 22 20 18 17 15 14 13 12 11 9 7 7 7 5 5 6 6 5 5 4 4 6 6 7 7 7 7 7 7 7 7 8 8 8 8 8
38 36 35 34 34 34 34 35 35 35 35 35 37 38 41 43 44 43 41 40 39 36 33 29 26 25 24 24 24 25 24 24 22 19 21 24 25 27 29 29 30 30 30 30 31 33 33 34 32 30 28 24 22 20 18 17 16 15 14 12 11 9 7 6 6 6 5 6 5 3 4 4 4 4 5 5 5 5 7 8 9 9 10 9 9 8 9 9
38 36 35 34 34 33 33 34 34 34 34 34 34 35 37 39 40 41 41 41 39 36 33 30 28 27 25 24 25 25 24 23 21 22 24 26 27 28 29 29 30 29 30 31 32 34 34 34 32 30 28 25 22 20 19 18 16 15 14 13 11 10 8 6 6 6 6 6 5 3 2 3 3 4 4 4 4 5 8 10 11 11 11 11 11 10 9 9
37 37 36 34 33 33 33 34 34 34 34 33 33 33 34 35 36 37 38 38 37 33 32 30 28 28 26 26 26 25 25 21 20 24 26 27 27 28 29 29 30 29 30 31 32 33 34 34 32 30 28 26 22 21 20 18 17 15 14 14 12 11 9 7 6 7 8 8 6 4 3 2 2 3 3 3 5 7 8 9 10 10 10 11 11 11 9 9
37 37 35 34 32 32 33 33 34 34 33 33 32 32 32 33 34 35 36 36 34 32 32 30 29 29 29 29 28 26 27 20 19 25 26 27 28 28 29 29 30 29 30 30 30 32 33 33 31 29 28 26 23 21 20 18 18 16 15 15 14 12 11 9 8 8 9 8 7 6 5 3 2 2 2 3 7 7 7 8 9 9 9 10 11 11 10 10
37 36 34 33 32 32 32 33 33 33 33 32 32 32 32 32 33 34 35 34 33 32 32 30 29 30 30 30 28 27 27 20 20 26 26 27 28 28 28 29 29 29 29 29 29 29 31 31 30 29 27 26 24 22 20 18 17 17 16 15 14 14 12 11 10 10 10 9 8 7 6 5 3 2 3 5 7 6 7 8 8 8 9 9 11 12 12 11
36 35 33 32 31 31 32 32 33 33 33 32 32 32 31 32 32 33 34 33 32 32 31 30 29 29 30 30 29 28 26 20 21 26 27 27 28 27 28 28 29 28 28 28 28 28 28 29 28 28 26 25 24 21 20 19 18 18 17 16 15 14 14 13 12 12 12 12 10 9 8 6 5 3 4 7 7 4 5 6 7 7 8 9 11 13 13 13
36 34 32 31 31 31 31 32 32 33 33 32 32 31 31 32 32 33 33 32 32 31 31 30 29 29 29 30 29 28 25 20 22 28 27 27 27 26 26 26 28 28 28 27 27 27 27 27 27 26 25 23 23 21 20 19 19 19 18 18 16 15 15 14 14 14 14 14 13 11 9 8 7 5 4 8 7 4 5 6 6 7 8 10 11 12 14 14
36 34 32 31 31 31 31 31 32 33 33 33 32 32 31 31 32 32 32 31 31 31 30 29 28 29 29 30 29 26 24 20 24 29 27 27 27 25 25 25 26 27 27 27 26 26 26 26 25 25 24 23 23 21 20 20 20 20 19 19 18 17 16 15 15 15 16 16 14 13 11 10 8 4 5 8 6 5 6 7 7 7 8 10 11 12 13 14
36 34 33 32 31 31 31 31 32 33 34 33 33 32 32 32 32 32 31 31 31 30 30 29 29 29 29 29 27 24 24 21 24 29 27 27 27 26 26 25 25 25 25 25 25 25 25 25 24 24 24 23 23 21 20 21 21 20 19 19 19 18 17 17 16 16 16 16 15 13 12 11 8 5 8 8 5 5 6 7 8 8 8 9 10 11 11 12
37 35 33 32 31 31 31 31 32 33 34 34 33 33 33 33 32 32 32 32 31 30 30 30 29 29 28 28 25 23 25 22 23 28 28 27 27 26 26 25 25 25 25 25 24 24 24 24 23 23 23 23 22 21 20 22 21 20 20 19 18 19 18 18 17 17 16 16 15 13 13 11 7 6 9 7 5 6 7 8 9 9 9 9 9 9 10 11
37 35 33 31 31 30 30 31 32 34 35 34 34 34 34 33 33 32 31 31 31 31 30 30 29 29 28 26 25 24 26 23 22 27 28 27 27 27 27 26 25 25 25 25 24 24 24 23 23 23 23 22 22 22 20 20 22 21 20 19 19 20 20 19 18 17 16 16 15 14 15 13 9 8 7 7 7 7 8 9 11 11 11 10 10 10 10 10
36 34 33 31 30 29 29 30 32 35 35 35 34 34 34 33 32 31 31 31 31 31 30 29 29 29 27 26 25 25 26 24 22 25 27 27 27 26 27 27 26 26 25 25 25 25 24 24 24 24 24 23 22 22 20 19 21 22 19 19 21 21 20 19 18 17 17 16 15 14 14 12 11 11 9 8 8 8 9 11 11 12 12 12 11 11 11 11
37 35 33 31 30 29 29 29 32 35 36 35 34 34 34 33 32 31 31 32 31 31 29 29 29 29 28 26 26 26 27 25 22 25 27 27 27 27 27 27 27 27 26 26 26 26 26 25 25 25 24 23 23 23 20 17 19 22 21 19 21 21 20 18 17 17 17 17 17 15 14 11 9 9 10 10 10 9 11 12 12 13 13 13 12 13 13 12
37 36 34 32 30 29 28 29 32 35 35 35 34 34 33 32 32 32 32 32 31 30 29 28 29 28 26 26 27 28 27 25 23 25 27 27 27 27 27 28 28 28 27 27 27 27 26 26 26 26 25 24 23 24 21 18 20 23 23 22 20 19 20 18 16 16 16 17 17 17 17 13 10 10 10 11 12 12 12 12 12 13 13 12 12 12 12 12
38 37 35 33 31 29 28 30 33 35 35 35 35 35 34 33 32 32 33 33 31 30 29 29 31 29 26 27 29 28 27 25 24 25 27 28 28 28 28 28 28 28 28 28 28 28 27 27 26 26 27 25 25 26 24 23 24 23 23 23 20 17 17 17 17 15 15 16 16 17 17 14 12 14 13 12 13 14 13 12 12 12 12 10 10 10 10 11
39 37 36 34 32 30 29 31 34 35 36 37 37 37 36 34 33 33 33 33 32 32 32 32 34 32 25 27 29 27 27 25 24 26 28 29 29 29 29 28 28 29 29 30 29 29 28 27 27 28 29 28 26 26 26 24 20 18 17 17 17 17 17 16 17 17 16 15 16 17 18 15 13 15 15 14 15 15 14 13 12 13 12 11 11 10 10 11
40 38 37 35 33 32 31 32 35 37 39 39 40 39 38 38 37 36 34 33 33 34 35 33 34 32 22 23 28 27 27 26 24 27 28 29 29 29 29 29 29 29 29 30 30 30 29 29 30 31 30 28 26 25 24 21 16 14 14 14 15 15 15 15 15 16 16 16 16 16 18 17 15 14 15 16 17 16 15 14 14 14 13 13 12 11 11 11
40 38 38 37 35 35 33 34 36 39 40 40 40 40 40 41 40 40 39 37 35 34 34 31 32 32 19 18 27 28 28 27 25 27 28 29 29 29 30 30 31 31 30 29 29 29 29 30 30 28 25 24 24 23 22 20 17 15 14 13 14 15 14 14 14 15 15 16 16 16 18 18 16 15 15 16 18 17 16 16 16 16 15 15 14 12 12 12
41 40 39 38 37 36 36 36 37 39 40 40 41 40 38 38 35 35 37 37 36 34 33 30 31 32 20 15 25 28 29 29 26 27 29 29 30 30 31 32 31 31 31 30 29 28 29 30 27 24 24 24 23 22 21 20 19 18 17 15 14 15 15 14 13 14 14 15 15 17 19 18 16 16 15 16 18 18 18 18 18 17 16 16 16 15 14 13
41 41 40 39 38 38 37 38 38 38 40 40 40 38 37 36 32 30 32 33 33 32 31 29 28 31 21 13 23 28 28 30 28 28 30 30 31 31 31 32 31 30 31 31 30 30 29 27 25 24 23 24 23 23 22 21 21 20 19 17 15 14 14 13 13 13 13 14 15 17 19 19 17 16 15 15 17 18 19 19 19 17 16 16 16 16 15 14
42 42 41 40 39 39 38 39 38 38 38 38 38 37 35 35 31 28 31 30 30 31 30 27 26 29 23 13 19 27 28 29 28 27 29 30 31 31 30 30 30 30 30 30 30 29 26 23 25 26 24 24 24 24 23 22 20 19 17 16 15 14 13 12 11 11 12 13 14 16 17 18 17 15 14 14 16 18 19 19 19 18 17 16 17 16 15 15
43 42 42 41 40 40 39 39 39 37 36 36 37 36 34 34 30 26 29 28 27 29 30 28 25 26 26 17 16 25 28 27 28 27 27 28 30 31 30 29 30 30 29 29 28 26 23 20 23 26 25 25 24 23 23 21 19 17 16 15 13 13 12 12 11 9 9 9 12 12 8 8 10 8 8 10 12 15 16 17 18 17 17 17 17 17 17 17
43 42 41 41 40 40 40 40 38 36 36 36 36 35 33 34 30 25 28 25 23 28 29 28 25 24 29 24 17 21 26 26 27 27 27 27 29 30 31 30 30 29 28 27 25 24 24 22 21 23 24 24 23 23 21 20 19 17 16 15 14 13 12 11 11 9 7 5 7 7 4 5 8 7 6 6 8 11 11 12 13 14 15 16 16 17 17 17
43 42 41 41 40 40 39 39 37 37 37 36 35 34 32 32 28 26 26 15 13 25 28 27 26 23 28 29 22 21 25 27 29 29 29 29 29 29 30 31 30 29 27 27 24 23 26 26 22 21 23 24 24 24 22 21 20 19 16 15 14 14 12 11 11 9 8 7 8 10 8 9 13 12 9 8 9 10 11 11 12 13 14 14 15 16 16 16
43 42 41 41 40 40 38 36 37 38 36 34 34 33 32 31 28 28 21 6 7 24 27 26 27 23 26 29 26 24 24 28 31 31 30 30 30 29 28 29 29 28 27 28 28 25 25 27 24 21 23 26 26 24 22 21 20 18 16 14 14 13 12 11 11 10 10 10 10 12 10 8 12 15 12 10 10 11 12 12 12 12 12 13 13 15 16 17
43 42 41 40 40 39 38 37 36 36 35 34 34 32 31 30 28 25 12 3 12 25 27 27 28 26 26 28 29 27 25 26 31 32 32 31 31 30 28 26 26 25 26 27 27 24 23 24 24 22 21 22 23 21 20 20 20 18 16 14 13 12 11 10 9 9 8 8 9 11 10 7 9 15 14 11 11 12 14 14 14 13 13 13 14 15 16 18
43 43 40 39 40 39 38 38 36 36 36 34 33 32 31 29 29 20 5 8 19 24 27 29 30 29 28 29 31 30 27 26 29 32 33 33 32 31 29 26 25 23 24 25 25 23 21 21 23 23 19 17 18 19 20 20 19 18 16 14 13 10 9 8 7 7 4 5 8 11 12 9 5 8 9 8 9 11 14 14 15 15 14 14 15 16 17 17
44 43 40 39 38 37 38 38 38 38 36 35 34 33 32 30 30 16 4 16 23 22 29 32 31 32 31 31 33 32 31 27 28 32 34 34 33 33 31 28 27 24 22 25 25 23 20 18 21 23 21 18 17 19 20 20 20 19 17 17 13 9 6 5 5 5 3 3 6 11 14 13 9 5 3 5 6 8 11 14 14 14 14 14 14 15 15 15
44 43 41 39 37 36 37 36 37 37 36 36 34 35 36 29 24 18 13 19 21 22 32 35 34 36 33 33 33 33 34 30 28 30 33 35 35 35 34 32 32 27 22 25 25 23 21 19 19 20 21 21 19 21 22 21 22 21 20 19 13 5 3 3 2 3 4 4 5 8 9 12 14 12 7 6 7 10 13 15 16 15 13 13 13 13 14 14
43 42 41 41 39 37 37 36 36 37 37 38 35 38 38 23 18 28 26 22 19 23 35 36 35 37 35 36 36 34 35 33 30 30 31 35 35 35 35 32 33 31 26 28 28 24 20 18 21 22 22 24 24 24 26 25 24 24 23 22 16 6 4 2 3 1 4 6 8 9 6 8 13 13 13 13 11 13 17 17 16 16 14 14 14 14 14 14
41 42 42 42 40 38 38 37 37 38 37 40 39 40 36 21 23 36 33 26 22 24 34 36 34 36 36 37 37 36 36 34 32 31 30 34 35 37 37 34 34 33 29 27 28 27 21 15 23 27 23 24 27 26 25 24 25 25 24 22 20 13 6 3 4 3 2 4 8 10 6 5 6 5 11 19 18 17 19 19 17 16 16 15 15 15 14 13
38 40 41 42 41 40 40 38 38 39 38 41 42 40 37 31 32 38 36 33 28 25 34 36 33 37 38 38 38 37 37 35 33 31 30 34 37 38 40 39 37 36 32 27 25 28 25 17 20 27 25 22 25 26 24 22 23 25 25 23 21 18 10 4 4 4 4 4 4 9 9 7 6 5 6 15 23 22 20 20 18 16 16 16 15 15 14 13
36 38 40 42 42 40 41 40 39 40 41 43 43 42 45 39 33 36 39 40 33 28 34 34 31 37 39 37 37 37 38 36 34 33 30 32 36 38 40 40 40 40 37 32 27 27 26 20 18 24 26 23 22 25 26 24 23 23 26 27 24 20 15 6 4 4 4 2 3 8 11 10 9 8 7 10 18 22 21 22 21 18 17 17 17 17 15 14
34 36 39 41 42 40 41 42 41 42 43 45 46 46 47 38 28 32 38 40 36 29 31 34 32 35 38 38 39 39 39 36 33 34 33 32 33 37 40 39 40 41 40 37 32 28 25 21 17 21 26 27 25 26 28 28 26 24 26 30 25 18 16 11 4 3 3 0 4 9 14 14 11 11 12 14 16 18 19 23 25 23 20 20 20 18 17 15
34 35 37 41 41 40 42 42 42 43 44 46 49 46 42 33 25 28 34 38 37 30 29 33 33 34 37 39 40 41 41 38 36 35 35 33 30 33 40 40 39 41 41 38 33 28 24 17 14 18 24 26 26 26 28 29 29 26 23 26 22 13 12 14 7 2 2 1 3 7 12 17 20 18 16 18 19 19 18 20 25 27 25 23 22 21 19 18
37 35 35 39 42 41 42 42 43 44 44 48 51 44 37 32 28 29 31 33 36 33 30 30 31 33 36 37 38 41 42 41 40 39 36 34 32 32 37 39 39 39 41 41 35 30 26 17 12 17 23 25 26 28 31 32 33 29 21 21 22 14 11 16 13 6 4 3 2 3 4 11 19 20 17 17 17 19 21 19 22 26 27 25 24 23 21 20
39 37 36 39 42 42 42 43 44 45 46 51 52 44 38 35 32 29 28 29 33 35 33 30 30 31 35 36 36 38 42 42 43 43 39 36 36 35 34 36 39 39 39 40 38 32 27 21 16 18 23 25 27 31 35 35 36 34 27 24 26 21 15 14 15 13 8 4 3 2 3 8 9 9 12 16 18 19 20 19 20 24 27 26 25 24 23 22
41 37 36 38 41 42 42 43 45 48 50 51 51 46 40 36 32 30 28 27 30 33 34 33 31 30 32 35 37 37 40 42 43 43 42 41 40 37 35 35 37 39 39 40 41 36 29 24 20 20 25 29 30 32 35 34 34 35 34 32 31 30 23 12 9 16 17 9 5 4 4 8 8 5 9 17 22 23 20 19 21 23 25 27 26 25 24 23
46 40 37 37 40 42 44 46 47 49 51 51 50 47 42 36 31 30 30 28 29 31 33 32 30 29 28 30 35 38 38 40 43 43 42 43 42 39 35 34 34 36 38 39 40 40 34 27 22 21 25 28 28 30 32 33 34 34 34 35 32 31 32 22 12 16 19 14 9 5 4 11 13 9 9 14 20 23 21 21 23 25 26 27 26 25 24 23
45 45 41 38 38 40 44 46 48 50 50 50 49 46 43 38 32 30 31 30 29 30 32 32 31 29 27 26 29 35 38 38 40 43 43 42 43 41 35 32 30 31 35 37 38 40 36 28 23 18 19 24 27 28 29 30 33 34 35 37 35 34 36 32 22 16 15 17 15 5 3 13 16 13 13 14 16 19 20 21 24 25 26 25 24 25 24 25
36 43 44 41 38 40 45 48 50 53 52 49 48 46 43 40 34 31 31 31 30 28 30 32 31 30 29 25 23 27 32 34 36 40 43 42 42 41 37 33 29 28 32 35 37 39 33 28 25 16 7 9 16 17 21 27 32 37 39 39 39 38 36 33 27 18 13 19 20 10 9 19 18 15 17 16 14 17 20 21 23 24 24 24 24 25 26 27
27 34 40 44 43 41 45 51 53 53 53 51 48 46 44 41 37 33 31 31 31 30 29 30 30 30 30 27 23 21 25 30 32 35 40 42 41 39 38 35 30 27 27 28 33 37 33 31 32 23 12 8 12 15 25 34 37 38 40 40 41 41 38 35 29 19 16 22 24 22 22 24 19 15 15 14 15 19 21 22 23 23 22 22 23 25 28 30
24 26 29 38 45 44 44 49 52 52 54 52 48 46 44 42 39 36 33 32 32 32 30 29 30 30 29 29 27 24 24 27 29 30 34 38 39 38 36 36 32 27 25 24 27 32 32 32 35 35 32 30 31 33 36 37 37 39 41 42 42 40 40 37 29 25 29 27 25 32 33 28 23 17 13 13 17 19 19 20 21 22 22 24 26 29 32 32
24 24 24 29 37 42 44 48 50 51 52 51 48 46 45 43 40 38 36 34 33 33 32 31 31 32 32 31 30 29 27 27 28 29 29 31 35 36 34 34 33 30 27 24 25 28 31 33 35 37 39 40 40 38 36 33 33 36 39 41 43 41 40 39 35 37 39 28 25 38 40 34 33 24 16 16 17 17 18 19 20 22 24 24 27 30 32 32
25 25 24 25 26 33 42 47 49 49 48 47 47 46 43 43 42 40 39 37 35 34 34 33 33 33 33 32 31 31 31 30 30 31 30 28 30 32 33 32 32 32 30 27 27 29 31 33 35 37 38 39 40 38 36 33 29 28 30 33 37 39 40 42 42 44 44 35 35 43 39 37 38 30 25 26 22 19 20 20 21 24 24 24 26 29 31 32
27 25 24 25 23 24 32 40 44 44 41 41 45 45 43 43 44 41 39 39 38 36 35 35 35 34 33 32 31 31 31 32 33 33 33 31 28 28 30 30 30 31 32 30 30 30 30 32 34 36 37 39 39 38 38 35 29 26 27 26 27 30 34 38 40 42 44 44 44 43 39 40 39 33 31 29 24 22 23 23 25 25 25 26 27 28 31 31
29 28 25 26 25 22 24 30 35 36 34 33 37 43 44 44 43 41 39 39 39 38 38 36 34 34 33 32 31 31 30 31 33 33 33 33 32 29 28 27 29 30 32 32 32 31 32 32 31 34 35 36 38 39 38 36 33 30 29 26 25 25 27 32 35 37 42 44 43 44 45 46 42 36 32 27 23 24 25 26 28 27 27 28 28 29 31 32
30 30 28 27 26 25 24 24 26 28 28 28 31 36 41 44 44 41 39 38 37 38 39 37 33 31 32 32 31 31 29 28 30 30 28 30 31 30 28 27 27 29 31 34 33 33 34 33 32 32 30 31 35 36 36 37 33 30 31 32 34 36 36 38 37 35 38 39 39 42 46 46 42 36 32 31 30 29 28 30 29 29 30 30 30 33 34 35
31 32 31 29 28 28 26 24 23 23 24 25 28 29 32 37 39 38 39 39 38 37 36 36 35 32 31 31 30 28 26 26 27 26 25 25 27 28 29 28 26 26 28 32 35 36 36 35 34 31 26 28 31 30 32 31 22 24 36 42 43 45 44 42 40 38 38 37 36 40 44 42 39 34 32 33 34 33 33 33 32 33 34 34 35 36 37 38
Wind_Direction
191 193 193 195 195 196 197 197 197 197 199 200 203 204 202 201 200 199 199 200 202 203 203 201 205 210 201 196 195 203 235 236 230 226 215 198 184 183 186 185 180 174 171 172 174 178 180 180 178 177 176 177 178 180 182 182 181 182 183 179 173 176 178 175 167 147 139 143 138 141 164 181 187 191 191 185 170 159 156 156 157 151 142 139 140 141 140 137
190 192 193 195 196 196 197 197 197 197 198 199 202 204 202 201 200 199 201 203 209 212 212 204 201 204 200 206 203 208 236 238 227 215 200 191 184 184 183 179 176 172 170 172 175 179 181 181 180 178 178 180 182 183 185 185 185 185 185 181 175 176 179 181 177 159 150 154 145 135 142 163 186 196 197 191 180 170 166 165 168 164 154 151 152 154 154 148
189 191 193 195 196 196 197 197 197 197 198 198 201 203 203 203 203 203 206 211 215 218 219 212 205 205 211 218 210 212 231 235 223 201 189 189 183 183 182 176 173 170 169 171 176 179 182 183 181 181 181 182 185 187 189 188 189 189 187 183 179 178 180 186 188 178 172 171 161 141 134 139 165 190 198 196 191 182 174 174 177 180 175 169 166 165 164 160
189 191 193 194 196 196 196 197 198 197 198 198 199 201 203 205 206 208 212 216 219 219 220 218 208 204 213 218 214 215 224 228 214 188 185 188 182 182 180 175 172 169 169 172 176 180 182 184 183 183 183 185 187 190 193 192 192 193 191 188 186 186 185 189 196 199 195 185 184 167 139 138 153 169 189 196 192 185 185 185 185 190 187 181 181 179 174 171
189 190 191 193 195 196 196 197 198 198 198 198 198 199 201 204 206 208 211 214 217 217 218 218 208 204 211 216 218 216 215 218 202 182 186 185 181 181 177 175 171 170 171 173 176 180 183 185 186 186 186 187 190 193 196 196 197 196 195 192 192 193 192 194 199 207 211 207 212 208 161 153 157 162 179 186 190 197 197 195 197 200 195 190 191 192 189 182
189 191 191 193 194 196 197 197 197 198 198 198 198 198 199 201 202 204 207 210 211 211 214 214 206 202 207 214 219 214 206 205 190 183 186 183 182 179 175 173 170 171 173 174 177 180 184 186 188 189 189 189 192 197 198 200 201 200 200 198 197 201 202 207 206 210 220 222 228 235 222 196 166 172 178 183 203 212 206 202 206 208 204 200 197 196 198 196
189 190 191 192 194 196 197 197 197 197 197 197 197 197 198 199 199 202 203 205 206 207 210 210 204 200 205 214 216 209 201 195 185 184 184 181 182 179 175 172 170 173 174 176 178 181 186 188 190 192 192 193 195 199 201 204 207 206 207 204 204 209 213 220 219 220 227 232 237 243 246 245 213 191 167 200 219 219 209 206 207 206 204 204 200 196 197 202
189 190 190 191 193 195 197 197 198 197 196 196 196 196 196 197 197 199 200 201 202 205 207 206 203 199 204 211 210 204 197 190 186 184 182 182 181 178 175 172 171 173 175 177 179 184 188 190 193 194 194 196 197 200 204 208 212 213 213 211 213 217 220 226 229 230 233 239 241 243 251 254 248 223 183 218 230 219 212 212 206 201 198 198 197 196 195 198
189 190 190 191 193 195 197 197 198 196 195 194 194 194 194 195 195 197 197 197 199 203 204 203 202 199 203 205 204 201 190 186 187 182 181 182 181 179 175 172 172 173 175 178 180 184 190 192 194 196 196 198 199 203 206 211 216 216 217 218 219 222 227 232 235 237 238 241 243 244 250 254 260 251 207 227 237 213 212 218 210 202 197 196 195 196 196 196
189 189 189 190 192 195 196 196 197 196 194 193 192 192 192 192 193 194 193 194 198 201 201 200 199 198 201 201 200 196 185 184 184 179 179 180 179 178 175 174 174 174 177 179 182 184 189 193 196 197 198 201 203 205 208 213 219 219 221 223 226 229 232 237 238 239 240 242 244 248 252 255 258 257 232 234 238 211 206 215 209 201 198 199 197 196 197 198
188 188 188 189 191 194 195 196 196 195 194 192 190 189 189 190 191 191 190 192 196 198 197 196 196 196 197 198 197 190 184 185 181 177 177 178 178 177 176 177 176 176 178 181 184 186 189 194 197 197 199 203 205 207 210 215 220 222 223 226 229 233 235 237 238 238 241 242 245 250 253 253 249 245 239 236 230 212 203 206 208 202 201 202 200 198 196 198
188 187 187 189 191 192 194 195 195 194 192 189 187 187 187 187 188 188 189 192 194 194 193 192 193 193 195 198 195 188 189 188 179 177 177 177 179 178 177 178 177 179 180 182 187 190 192 196 198 198 201 204 204 206 211 214 219 223 225 227 230 234 235 235 236 237 239 241 244 249 255 254 247 236 238 238 224 213 207 204 208 208 208 207 205 202 198 200
187 187 187 188 190 191 192 194 194 193 190 187 185 184 185 185 185 186 188 191 191 190 190 190 191 191 194 197 193 190 192 190 181 178 178 179 180 179 180 180 179 180 182 184 187 191 195 197 198 200 203 205 204 205 208 211 216 220 222 225 227 229 232 234 235 236 238 241 241 246 254 250 242 235 237 239 226 218 215 209 208 209 211 211 211 208 205 206
187 186 186 188 190 190 191 192 193 192 188 185 183 183 183 183 183 184 187 188 187 188 188 188 190 191 194 195 193 192 193 190 183 181 180 180 182 181 181 181 181 182 184 186 187 191 195 197 199 201 203 204 204 205 207 209 212 215 218 221 224 225 228 232 234 237 238 241 241 243 249 245 241 240 234 233 227 222 220 214 211 211 213 213 214 215 214 216
186 185 185 187 189 189 190 191 192 190 185 182 180 180 180 180 180 182 185 185 184 186 187 189 191 192 194 196 194 193 192 190 185 184 183 182 183 184 183 183 183 184 185 187 187 190 193 195 197 200 200 201 202 203 205 207 209 210 211 215 221 223 228 232 233 237 238 242 242 244 250 248 245 243 238 234 225 219 220 216 213 213 215 217 217 217 217 222
185 184 184 185 187 188 189 190 189 186 182 179 177 178 178 177 177 179 182 183 183 186 188 190 192 192 194 196 196 193 191 190 187 185 184 183 184 185 185 184 184 185 186 187 187 188 191 192 195 197 198 198 198 200 200 201 205 209 211 215 220 222 227 231 232 235 238 241 243 243 246 247 249 248 242 239 231 223 223 219 218 217 218 218 217 218 217 221
184 184 183 183 185 186 186 186 185 182 178 175 175 176 175 174 175 178 181 181 182 186 188 192 194 192 195 198 196 193 189 188 187 186 185 185 185 185 187 187 186 186 186 187 187 187 189 191 193 194 195 196 196 195 193 194 202 207 211 216 220 222 226 230 234 236 237 239 242 242 243 244 251 257 250 243 238 232 229 225 221 221 221 221 220 220 220 222
184 184 182 181 182 182 182 183 181 179 175 173 174 174 173 173 175 177 180 182 183 185 189 194 193 191 197 199 196 193 188 187 188 187 186 186 186 185 186 188 188 187 187 187 187 188 188 190 193 193 193 193 194 195 195 201 208 209 211 215 219 222 228 233 235 237 238 239 241 244 246 244 245 252 252 250 248 243 239 234 227 226 227 228 226 222 221 221
184 183 182 181 180 179 178 179 178 176 173 172 172 172 172 172 175 178 180 183 184 186 190 194 192 190 195 199 195 191 187 186 187 188 188 188 188 187 185 187 189 189 189 188 188 189 190 190 191 194 195 195 196 200 205 210 213 213 218 222 224 226 231 235 238 241 242 243 245 247 250 247 240 245 251 253 253 251 248 243 236 235 234 231 230 226 224 218
183 182 182 180 178 176 174 175 175 173 172 173 173 172 173 174 176 178 180 184 188 190 193 195 193 191 194 196 194 190 187 187 187 188 189 189 189 188 186 186 188 189 191 191 190 190 192 194 197 199 199 199 200 202 206 209 208 209 218 223 225 229 232 233 237 242 244 246 248 251 253 251 243 244 248 253 254 252 251 249 242 241 238 234 236 237 236 226
183 182 182 180 177 175 173 173 173 173 174 174 175 175 177 178 180 181 180 183 188 193 195 195 193 192 193 194 192 190 189 188 187 189 190 190 190 190 188 188 189 189 190 192 193 193 194 199 202 202 201 201 203 204 206 209 210 212 215 219 223 226 228 229 231 236 242 247 250 254 256 254 251 247 244 249 255 256 254 251 247 245 245 246 249 247 244 237
183 183 182 180 178 176 174 174 175 177 177 176 178 179 179 180 184 185 183 184 187 191 196 196 194 192 190 190 191 190 190 189 187 188 190 191 191 192 192 191 191 191 191 192 194 195 199 203 202 200 201 201 204 208 210 212 215 218 219 222 224 224 226 229 230 234 240 247 252 256 258 257 257 255 249 249 255 259 258 255 253 250 248 250 252 249 245 242
184 184 182 180 178 177 176 177 179 181 181 180 181 182 181 180 183 187 187 188 189 191 196 197 195 193 188 184 189 191 192 192 190 188 189 191 192 193 195 194 192 193 193 194 195 197 201 203 201 201 203 204 205 208 211 214 218 221 222 223 225 224 225 227 232 235 239 247 253 259 264 262 261 261 257 255 256 256 257 257 258 255 251 250 251 249 245 242
185 184 182 181 179 179 179 179 182 185 185 184 185 185 183 181 182 185 186 189 191 193 196 198 197 195 190 182 188 192 193 194 195 192 190 192 193 195 197 197 196 195 197 198 199 202 203 200 200 203 203 205 208 210 212 215 219 224 226 225 226 226 227 229 231 233 238 248 256 265 275 273 269 267 261 257 255 254 254 254 255 255 254 252 252 252 249 246
184 184 183 182 181 181 181 182 184 186 187 188 189 188 184 182 182 182 185 187 191 194 195 196 197 195 194 189 189 193 194 194 196 197 194 193 196 196 196 197 199 199 199 199 200 204 206 203 204 206 205 207 210 213 215 215 218 222 224 221 220 220 223 226 224 226 237 251 262 271 287 281 270 260 247 243 243 247 249 250 250 251 250 249 250 251 249 247
184 184 183 182 183 183 183 184 184 185 188 190 191 189 186 184 181 178 182 186 191 195 196 196 195 194 195 195 190 190 194 196 197 199 199 196 198 199 197 197 199 200 200 199 200 204 205 207 209 208 209 211 212 214 216 215 215 217 218 217 214 212 212 215 219 224 235 246 261 265 263 270 263 229 202 217 229 238 243 245 246 244 244 242 242 246 246 244
183 183 182 183 184 185 187 186 184 186 189 190 189 189 187 184 180 176 175 175 193 196 196 197 196 196 197 198 193 188 193 196 195 198 201 199 199 199 201 201 200 199 198 197 199 203 204 206 208 207 208 212 213 213 213 212 212 213 213 209 210 212 211 216 224 231 244 252 260 266 264 273 271 247 223 224 234 247 251 250 249 243 242 241 237 238 242 240
183 182 182 184 185 186 188 187 186 188 189 188 188 188 187 183 179 177 171 145 183 190 195 198 197 198 199 199 197 194 195 195 194 197 200 201 200 198 200 204 203 201 199 199 202 203 205 206 207 206 208 211 213 212 211 209 209 212 211 206 207 214 219 226 236 243 253 260 260 262 258 261 269 260 250 243 237 244 251 250 247 240 239 241 239 237 236 237
182 183 183 184 185 186 188 189 189 189 189 188 187 186 184 182 178 175 171 169 179 185 194 196 196 199 201 200 200 200 200 197 197 197 197 200 202 201 200 201 202 201 201 205 207 207 206 207 207 208 211 214 213 210 210 209 210 212 210 208 205 209 218 226 237 242 251 256 249 251 244 237 269 268 260 257 247 241 245 248 247 245 243 242 242 239 234 233
183 183 184 185 186 186 187 189 189 189 189 187 186 183 180 178 175 168 164 198 183 185 194 194 196 200 200 199 200 202 203 200 200 199 197 198 201 202 202 199 199 201 203 204 207 211 210 209 209 208 210 213 211 209 207 206 209 210 207 202 195 196 208 217 229 234 252 261 237 233 232 226 263 277 258 248 243 238 238 239 241 241 240 238 236 233 231 230
184 183 185 186 187 187 188 189 188 188 188 186 183 179 175 174 175 169 174 192 184 186 192 193 197 201 203 203 201 202 203 202 201 200 199 198 199 200 200 197 194 197 204 206 205 208 210 209 209 209 209 206 203 205 205 205 207 206 204 198 186 177 189 207 221 209 211 257 222 218 224 219 222 240 224 206 217 230 228 222 221 220 218 220 221 222 223 222
186 183 185 187 188 187 187 189 190 187 185 184 180 176 174 170 177 191 191 183 184 192 194 195 198 200 203 206 205 204 203 202 202 202 203 201 201 201 201 200 195 191 198 204 204 205 208 211 210 209 210 206 200 197 196 199 202 203 201 193 180 144 141 210 231 200 222 234 207 206 212 222 232 235 224 221 230 226 214 207 206 203 201 204 208 211 213 212
186 184 185 186 187 186 186 187 189 187 184 181 177 177 176 168 187 201 192 180 187 196 197 199 201 201 202 204 205 205 202 203 202 201 204 205 205 204 203 204 202 198 199 200 200 198 199 210 213 209 209 207 204 198 194 194 195 199 201 193 184 143 93 230 255 291 258 230 203 203 210 240 249 242 225 222 224 214 203 196 197 199 200 204 205 207 209 208
184 185 187 186 185 184 184 185 187 186 182 180 177 176 176 181 201 199 191 189 190 190 194 198 198 199 202 204 206 206 202 202 203 201 201 204 206 206 205 205 205 207 206 198 197 197 193 204 211 208 207 206 206 206 207 206 198 198 204 205 203 194 169 200 212 198 200 177 186 196 204 239 237 215 211 211 209 205 197 193 196 200 204 208 210 211 211 212
183 185 187 187 185 183 183 184 185 183 181 181 178 176 183 196 202 197 193 195 193 186 189 194 196 196 198 203 205 205 204 203 203 203 203 204 206 208 208 207 205 208 208 200 197 200 201 209 212 208 208 209 206 206 209 208 201 198 202 207 212 213 205 166 151 162 138 118 176 199 213 230 199 161 179 201 207 208 199 196 200 204 208 211 216 218 218 220
181 184 185 187 186 183 182 183 183 182 182 182 180 182 194 202 200 197 197 198 198 190 184 186 192 193 193 198 202 203 205 206 203 202 205 208 210 211 212 212 210 209 210 207 201 200 203 210 216 209 206 207 205 205 205 203 203 202 202 207 211 215 213 184 125 128 133 141 228 212 224 237 216 198 186 180 198 207 205 204 207 210 213 215 218 220 220 220
181 184 184 186 186 183 182 181 182 182 183 184 186 192 201 204 199 199 200 200 200 195 188 185 188 192 193 196 201 203 204 206 204 203 205 207 212 215 213 214 215 213 213 212 208 207 204 204 210 206 202 203 201 202 204 205 208 206 206 210 210 208 212 204 159 88 92 240 244 224 230 233 220 211 205 193 195 206 209 209 211 214 215 216 218 219 220 220
181 187 186 185 186 184 183 181 182 183 183 187 193 198 203 202 198 200 201 201 199 196 197 194 192 196 197 198 201 203 204 204 204 205 206 207 212 217 215 214 216 216 216 215 214 214 209 201 202 202 200 202 200 199 202 205 210 213 214 212 205 197 203 196 180 123 148 222 268 240 233 233 229 225 218 211 210 216 221 217 214 215 216 217 219 219 220 221
176 185 187 185 185 185 184 181 182 185 186 192 197 201 203 201 199 202 202 201 200 198 201 202 201 201 202 204 204 203 204 206 206 207 208 210 215 220 218 216 216 215 216 217 216 217 215 206 198 199 198 198 198 200 203 206 208 210 215 212 205 204 204 196 197 197 175 182 248 253 245 243 241 238 231 223 218 221 228 224 213 213 216 218 219 220 222 223
173 177 181 185 185 184 184 183 183 186 191 198 201 202 204 202 201 202 201 200 201 202 204 207 208 207 206 208 208 206 207 208 209 210 211 213 217 222 222 219 217 216 215 215 216 217 217 213 205 195 193 196 199 204 209 211 209 207 208 205 203 205 199 197 212 216 201 179 171 190 263 254 245 237 221 214 211 217 225 224 216 214 217 220 222 223 225 227
178 175 176 182 185 185 184 184 185 188 195 202 203 203 205 205 202 201 201 200 201 204 207 209 212 214 213 211 210 210 209 209 211 212 213 216 218 222 224 222 220 218 214 213 215 216 215 214 209 196 193 198 204 208 212 213 213 215 216 214 212 210 203 191 209 218 214 212 190 174 261 257 244 227 204 200 204 211 217 222 222 222 223 224 224 224 226 229
184 182 177 180 185 186 185 186 188 192 198 203 204 205 206 206 202 200 202 203 203 205 207 209 211 214 217 217 215 214 212 211 212 213 216 220 222 223 225 224 221 219 217 216 216 217 216 213 210 204 204 206 206 211 213 213 215 218 222 224 222 220 216 208 211 216 209 212 221 211 272 265 251 235 206 191 196 203 210 218 223 225 225 224 224 225 228 234
184 187 185 181 182 184 186 188 190 194 200 204 205 207 207 206 203 200 201 204 205 206 207 209 211 212 214 217 217 217 215 213 215 217 219 222 224 223 223 224 222 217 216 217 216 215 215 213 205 197 203 208 209 214 217 216 217 218 222 226 224 225 224 220 226 230 209 212 220 198 262 256 242 224 206 194 193 199 204 210 216 221 224 224 226 230 234 239
181 185 187 187 185 184 188 193 193 195 201 205 205 208 209 208 205 201 202 204 205 207 209 210 212 213 215 216 217 219 217 214 216 220 221 222 224 223 221 223 223 218 217 218 217 215 211 208 200 181 158 204 213 220 222 220 221 222 224 225 224 226 226 221 226 230 220 228 223 199 238 248 235 223 219 214 213 210 205 207 211 216 222 225 229 234 238 242
183 183 184 187 189 187 189 196 197 197 201 204 205 208 209 209 208 205 204 206 207 208 210 212 214 216 218 217 216 218 218 218 219 221 222 223 224 223 221 222 221 220 219 220 221 219 212 206 204 193 171 186 204 216 223 222 220 222 225 226 226 227 224 223 223 220 227 237 225 215 235 247 237 227 225 216 207 205 203 207 211 214 220 228 234 239 242 242
189 191 186 186 190 190 191 197 200 201 203 204 205 208 210 210 210 208 206 207 209 210 212 214 215 217 219 218 216 215 216 219 220 222 224 225 225 225 223 222 221 218 216 216 219 220 215 213 216 213 212 218 222 223 227 227 223 223 227 227 226 225 225 224 219 220 231 235 231 232 238 246 245 234 221 207 196 197 204 210 215 220 225 231 236 240 243 243
193 198 196 188 188 191 194 198 201 204 206 207 206 208 210 210 211 210 208 208 210 211 212 214 217 218 219 219 218 216 217 219 221 223 225 226 227 227 226 224 222 219 216 214 213 215 215 216 222 225 227 232 234 232 233 235 232 232 233 231 229 226 224 221 220 229 233 229 238 245 241 243 245 237 226 220 204 203 217 222 225 226 227 233 237 238 240 242
198 199 201 196 192 193 195 198 201 205 208 210 211 211 211 211 212 211 208 208 210 210 211 213 216 218 220 221 220 218 217 218 220 222 223 225 226 226 226 224 222 219 217 214 212 213 215 219 223 227 230 234 236 236 237 238 238 238 238 238 236 232 228 226 229 235 234 230 242 250 246 246 248 243 243 244 237 234 238 237 235 231 229 237 240 239 240 241
204 203 203 202 200 198 197 198 200 202 206 209 213 214 214 213 213 213 211 209 209 210 211 213 215 216 218 220 222 222 220 218 220 221 221 222 223 223 223 221 219 218 215 213 214 213 215 221 224 226 230 233 234 235 238 240 240 240 239 240 242 240 238 238 240 242 240 240 247 251 252 255 255 252 253 254 253 251 244 237 235 232 234 239 239 239 240 240
207 207 206 206 207 204 201 202 201 200 201 203 208 215 217 217 215 214 213 212 211 211 212 212 214 214 215 217 219 222 224 224 226 226 225 224 224 224 223 222 221 218 213 212 214 214 216 220 223 225 228 231 232 234 237 239 241 242 242 242 242 242 242 242 243 243 241 243 247 248 253 258 257 254 256 256 252 247 239 235 234 231 234 239 240 241 243 244
206 209 209 209 211 209 206 206 205 203 202 200 201 208 215 219 220 218 216 215 214 214 214 214 214 213 214 216 218 220 223 224 227 229 229 229 229 228 227 226 225 221 215 212 212 215 217 220 221 222 225 229 232 233 235 238 240 240 240 240 240 239 239 239 240 241 240 243 246 245 248 254 256 254 254 255 252 246 239 234 232 231 235 240 245 248 251 254
203 207 209 209 212 213 212 210 208 207 208 206 203 202 205 211 216 217 218 218 218 216 216 216 215 214 214 214 215 217 219 222 226 227 227 228 228 228 227 227 226 224 219 215 213 214 217 220 221 219 220 227 231 231 233 235 236 237 237 238 239 240 241 242 243 244 245 245 245 245 248 256 260 257 254 252 251 249 244 239 238 241 245 248 251 254 257 260
Height
3040 3044 3047 3051 3055 3059 3062 3065 3069 3072 3075 3078 3081 3085 3089 3092 3095 3097 3100 3102 3104 3106 3109 3112 3114 3116 3118 3121 3124 3124 3125 3127 3129 3130 3132 3134 3135 3137 3139 3142 3145 3146 3148 3151 3154 3158 3161 3164 3167 3169 3171 3173 3175 3177 3179 3181 3182 3183 3184 3185 3186 3187 3188 3189 3190 3190 3191 3191 3192 3192 3193 3194 3194 3195 3196 3196 3196 3196 3196 3197 3198 3199 3200 3200 3201 3201 3202 3203
3038 3042 3046 3049 3053 3057 3060 3064 3067 3070 3073 3076 3079 3083 3087 3091 3093 3096 3098 3100 3102 3105 3108 3111 3114 3116 3118 3121 3124 3125 3124 3126 3128 3129 3132 3133 3134 3136 3138 3141 3143 3145 3147 3150 3154 3158 3161 3164 3166 3169 3171 3173 3175 3177 3179 3180 3181 3182 3184 3185 3186 3187 3188 3188 3189 3190 3190 3191 3191 3192 3193 3193 3194 3194 3195 3196 3196 3196 3196 3197 3198 3199 3200 3200 3201 3201 3202 3203
3036 3040 3044 3048 3051 3055 3058 3062 3065 3068 3071 3074 3078 3081 3085 3089 3092 3095 3097 3099 3101 3104 3106 3109 3113 3116 3118 3120 3123 3124 3124 3125 3127 3129 3131 3132 3133 3135 3138 3140 3142 3145 3147 3150 3154 3158 3161 3164 3166 3168 3170 3172 3175 3177 3178 3180 3181 3182 3183 3185 3186 3187 3187 3188 3189 3190 3190 3191 3191 3192 3192 3193 3193 3194 3195 3195 3196 3196 3196 3197 3198 3199 3199 3200 3201 3201 3202 3202
3035 3039 3042 3046 3049 3053 3056 3059 3063 3066 3069 3072 3076 3079 3083 3087 3090 3093 3096 3098 3100 3102 3105 3108 3112 3115 3117 3119 3121 3122 3123 3125 3126 3128 3130 3131 3133 3135 3138 3140 3142 3144 3147 3150 3153 3157 3160 3163 3166 3168 3170 3172 3174 3176 3178 3179 3180 3182 3183 3185 3186 3186 3187 3188 3189 3190 3190 3191 3191 3192 3192 3192 3192 3193 3194 3195 3195 3196 3196 3197 3197 3198 3199 3200 3200 3201 3202 3202
3033 3037 3040 3044 3047 3051 3054 3057 3061 3064 3067 3071 3074 3077 3081 3085 3088 3091 3094 3096 3099 3101 3104 3106 3110 3114 3116 3118 3119 3120 3122 3123 3124 3127 3129 3130 3133 3135 3137 3139 3141 3144 3146 3149 3152 3156 3159 3162 3165 3167 3169 3171 3173 3175 3177 3179 3180 3181 3183 3184 3185 3186 3187 3188 3188 3189 3190 3190 3191 3192 3192 3192 3192 3192 3193 3194 3194 3195 3195 3196 3196 3197 3198 3199 3200 3201 3201 3202
3031 3034 3038 3042 3045 3049 3052 3055 3059 3062 3065 3068 3072 3075 3079 3082 3086 3089 3092 3094 3097 3100 3102 3105 3109 3112 3115 3116 3117 3118 3120 3122 3124 3126 3128 3130 3132 3134 3137 3139 3141 3143 3146 3149 3152 3155 3158 3161 3164 3166 3168 3170 3173 3175 3177 3178 3180 3181 3182 3184 3185 3185 3186 3187 3188 3189 3189 3190 3190 3191 3192 3192 3192 3192 3193 3193 3193 3194 3194 3195 3195 3196 3197 3198 3199 3200 3201 3202
3029 3033 3036 3040 3044 3047 3050 3053 3056 3060 3063 3067 3070 3073 3077 3080 3084 3087 3090 3092 3095 3098 3101 3104 3107 3110 3113 3115 3116 3117 3119 3121 3124 3125 3127 3130 3132 3134 3136 3138 3140 3143 3146 3148 3151 3154 3157 3160 3163 3165 3167 3169 3172 3174 3176 3178 3179 3181 3182 3183 3184 3185 3186 3187 3187 3188 3189 3189 3190 3190 3191 3191 3191 3192 3192 3192 3192 3193 3193 3194 3195 3195 3197 3198 3199 3200 3201 3202
3027 3031 3035 3039 3042 3045 3049 3052 3055 3058 3062 3065 3068 3071 3075 3078 3082 3085 3088 3090 3093 3096 3099 3103 3106 3109 3111 3113 3115 3116 3118 3121 3123 3125 3127 3130 3132 3134 3136 3137 3140 3143 3146 3149 3152 3155 3157 3160 3162 3164 3167 3169 3171 3173 3175 3177 3179 3180 3181 3182 3183 3184 3185 3186 3187 3187 3188 3189 3189 3190 3190 3190 3190 3191 3192 3191 3191 3192 3193 3193 3194 3195 3196 3197 3198 3199 3200 3201
3026 3030 3034 3037 3041 3044 3047 3050 3053 3057 3060 3064 3067 3070 3073 3077 3080 3083 3086 3089 3092 3095 3098 3101 3104 3107 3110 3112 3114 3115 3118 3120 3122 3124 3127 3129 3132 3133 3135 3137 3139 3142 3146 3148 3151 3154 3157 3159 3161 3164 3166 3168 3170 3173 3175 3177 3178 3179 3181 3182 3183 3184 3185 3185 3186 3187 3187 3188 3188 3189 3189 3189 3190 3190 3191 3191 3191 3192 3192 3193 3193 3194 3195 3196 3197 3198 3198 3199
3025 3029 3032 3036 3039 3043 3046 3049 3052 3055 3059 3062 3065 3068 3072 3075 3078 3082 3085 3087 3090 3094 3097 3100 3103 3105 3108 3111 3112 3115 3118 3120 3121 3124 3126 3129 3131 3133 3135 3137 3139 3142 3145 3148 3151 3153 3156 3159 3161 3163 3166 3168 3170 3172 3174 3176 3177 3178 3180 3181 3182 3183 3184 3185 3185 3186 3187 3187 3188 3188 3188 3188 3189 3189 3190 3190 3190 3191 3192 3192 3193 3193 3194 3195 3196 3197 3197 3198
3024 3027 3031 3034 3038 3041 3044 3047 3050 3054 3057 3060 3064 3067 3071 3074 3077 3081 3084 3086 3089 3093 3096 3099 3102 3104 3107 3110 3112 3115 3118 3119 3121 3123 3125 3128 3130 3132 3134 3136 3138 3141 3144 3148 3150 3153 3155 3158 3160 3162 3165 3166 3168 3171 3173 3175 3176 3177 3179 3180 3181 3182 3183 3183 3184 3185 3186 3186 3187 3187 3187 3187 3188 3189 3189 3189 3190 3191 3191 3192 3192 3193 3193 3194 3195 3196 3197 3197
3022 3026 3029 3033 3036 3039 3043 3046 3049 3052 3056 3059 3062 3066 3069 3073 3076 3079 3083 3085 3089 3092 3095 3098 3101 3104 3106 3109 3112 3115 3117 3118 3120 3122 3124 3126 3129 3131 3133 3136 3138 3141 3143 3146 3149 3152 3154 3156 3159 3161 3163 3165 3167 3169 3171 3173 3175 3176 3178 3179 3180 3181 3181 3182 3183 3184 3184 3185 3186 3186 3186 3186 3187 3188 3187 3188 3189 3190 3191 3191 3192 3192 3193 3193 3194 3195 3196 3196
3020 3024 3028 3031 3035 3038 3041 3044 3048 3051 3054 3058 3061 3065 3069 3072 3075 3078 3082 3085 3088 3091 3094 3097 3100 3103 3106 3109 3112 3115 3116 3118 3119 3120 3123 3125 3128 3130 3133 3135 3138 3140 3143 3145 3148 3151 3153 3155 3157 3159 3161 3163 3166 3167 3169 3171 3173 3175 3176 3177 3179 3179 3180 3180 3181 3182 3183 3184 3185 3186 3185 3185 3186 3187 3187 3187 3188 3189 3189 3190 3191 3191 3192 3193 3194 3195 3195 3196
3019 3023 3026 3030 3033 3037 3040 3043 3046 3050 3053 3057 3060 3064 3068 3071 3074 3078 3081 3084 3087 3090 3093 3096 3099 3102 3105 3109 3111 3113 3115 3117 3118 3119 3121 3124 3127 3129 3132 3134 3137 3139 3142 3144 3147 3149 3152 3154 3156 3158 3160 3162 3164 3166 3168 3170 3171 3173 3175 3176 3177 3177 3178 3179 3180 3181 3182 3183 3183 3184 3184 3184 3185 3185 3186 3186 3187 3187 3188 3189 3189 3190 3191 3192 3193 3194 3194 3195
3018 3022 3025 3029 3032 3036 3039 3042 3045 3049 3052 3056 3060 3063 3067 3070 3073 3077 3080 3083 3086 3090 3093 3096 3098 3101 3105 3108 3109 3111 3113 3115 3117 3118 3120 3123 3126 3128 3131 3133 3136 3138 3141 3143 3145 3148 3150 3152 3154 3156 3158 3160 3162 3164 3166 3168 3170 3171 3173 3174 3174 3176 3177 3178 3179 3180 3181 3181 3182 3183 3182 3182 3184 3184 3185 3185 3186 3186 3187 3187 3188 3189 3190 3191 3192 3193 3193 3194
3017 3020 3024 3027 3031 3035 3037 3041 3044 3048 3051 3055 3059 3063 3066 3069 3072 3076 3079 3082 3086 3089 3092 3095 3097 3101 3104 3106 3108 3110 3111 3114 3116 3117 3119 3122 3125 3128 3130 3132 3135 3137 3139 3142 3144 3146 3148 3151 3153 3155 3157 3159 3160 3162 3165 3167 3168 3170 3171 3172 3172 3174 3175 3176 3177 3178 3179 3180 3180 3181 3181 3181 3182 3183 3184 3184 3184 3185 3185 3186 3187 3188 3189 3189 3190 3191 3192 3193
3015 3019 3022 3026 3030 3033 3036 3039 3043 3047 3051 3054 3058 3062 3066 3069 3072 3076 3079 3082 3085 3088 3091 3094 3097 3101 3103 3104 3106 3108 3110 3113 3115 3116 3119 3121 3124 3126 3129 3131 3134 3136 3138 3141 3143 3145 3147 3149 3151 3153 3155 3157 3159 3161 3163 3164 3166 3167 3169 3170 3171 3173 3174 3175 3176 3177 3178 3178 3178 3179 3179 3180 3181 3182 3182 3182 3183 3184 3184 3185 3186 3187 3187 3188 3189 3190 3191 3192
3014 3017 3021 3025 3028 3032 3035 3038 3042 3046 3050 3054 3058 3061 3065 3068 3071 3075 3077 3080 3083 3087 3090 3093 3095 3098 3100 3101 3103 3106 3109 3112 3114 3116 3118 3120 3123 3125 3128 3131 3133 3135 3137 3139 3141 3143 3145 3147 3149 3151 3153 3155 3156 3158 3160 3161 3163 3165 3167 3168 3170 3172 3173 3173 3174 3175 3176 3176 3177 3177 3177 3179 3180 3180 3181 3181 3181 3182 3183 3184 3185 3186 3186 3187 3188 3189 3190 3190
3012 3016 3020 3024 3027 3031 3034 3037 3041 3045 3049 3052 3056 3060 3063 3066 3070 3073 3076 3079 3082 3084 3086 3088 3091 3094 3096 3099 3102 3105 3108 3110 3112 3115 3117 3119 3122 3124 3126 3129 3132 3134 3135 3137 3139 3141 3143 3145 3147 3148 3150 3152 3154 3157 3158 3160 3163 3165 3166 3168 3170 3171 3171 3172 3173 3173 3174 3175 3175 3175 3175 3177 3178 3179 3179 3180 3180 3180 3181 3182 3184 3184 3185 3186 3186 3187 3188 3189
3011 3015 3019 3023 3026 3030 3033 3037 3041 3044 3048 3051 3054 3057 3059 3062 3066 3069 3073 3077 3080 3082 3084 3087 3090 3094 3096 3098 3102 3105 3107 3109 3111 3113 3116 3118 3121 3123 3125 3128 3130 3132 3134 3136 3138 3140 3142 3143 3144 3145 3148 3151 3154 3156 3158 3160 3163 3165 3166 3167 3168 3169 3170 3171 3171 3171 3172 3173 3173 3174 3174 3175 3176 3177 3178 3178 3178 3178 3180 3181 3182 3182 3183 3184 3185 3186 3186 3187
3010 3014 3018 3022 3025 3029 3032 3036 3040 3043 3046 3050 3053 3055 3056 3059 3061 3064 3068 3073 3077 3081 3084 3087 3090 3094 3096 3098 3101 3104 3106 3108 3110 3113 3115 3118 3120 3122 3124 3126 3128 3130 3132 3135 3137 3139 3140 3141 3143 3146 3149 3152 3154 3155 3157 3160 3162 3163 3165 3166 3167 3168 3168 3169 3170 3170 3170 3171 3172 3172 3172 3173 3175 3176 3177 3177 3176 3177 3178 3178 3179 3180 3181 3182 3183 3183 3184 3185
3009 3013 3017 3021 3024 3027 3031 3035 3039 3042 3045 3048 3051 3054 3057 3060 3063 3067 3069 3072 3075 3079 3083 3086 3089 3093 3096 3097 3099 3102 3104 3107 3109 3111 3114 3116 3119 3121 3122 3124 3126 3128 3130 3133 3135 3137 3139 3140 3144 3147 3149 3150 3152 3154 3156 3158 3160 3162 3163 3164 3165 3166 3166 3167 3168 3169 3169 3170 3170 3170 3170 3171 3172 3174 3175 3175 3175 3175 3176 3176 3176 3178 3179 3180 3180 3181 3182 3182
3007 3011 3016 3019 3023 3026 3030 3033 3038 3041 3045 3048 3051 3054 3057 3061 3065 3069 3072 3074 3077 3080 3082 3086 3089 3092 3095 3097 3099 3101 3103 3106 3107 3109 3112 3115 3117 3120 3121 3123 3126 3128 3130 3131 3133 3135 3136 3139 3143 3145 3147 3149 3150 3152 3154 3156 3158 3160 3161 3162 3163 3164 3165 3166 3167 3167 3168 3168 3169 3169 3168 3169 3170 3171 3173 3173 3173 3173 3173 3173 3174 3175 3176 3177 3178 3178 3180 3180
3006 3010 3014 3018 3022 3025 3028 3032 3036 3040 3044 3048 3051 3054 3058 3061 3065 3068 3071 3074 3077 3079 3082 3085 3088 3092 3095 3096 3098 3100 3103 3105 3108 3109 3111 3114 3116 3118 3121 3123 3126 3127 3129 3131 3132 3134 3136 3139 3141 3143 3145 3147 3149 3150 3152 3154 3156 3158 3159 3161 3162 3163 3164 3165 3166 3166 3167 3167 3167 3168 3167 3167 3168 3169 3170 3171 3172 3171 3171 3171 3172 3173 3174 3174 3175 3176 3177 3178
3004 3009 3013 3016 3020 3023 3027 3030 3034 3039 3044 3048 3051 3054 3058 3061 3064 3067 3070 3074 3076 3078 3081 3084 3087 3090 3094 3096 3097 3099 3102 3105 3107 3109 3111 3113 3115 3117 3120 3122 3124 3126 3128 3130 3132 3134 3136 3138 3139 3141 3143 3145 3147 3149 3151 3153 3155 3156 3158 3159 3161 3162 3163 3164 3164 3165 3166 3166 3166 3167 3167 3166 3166 3167 3168 3169 3169 3169 3169 3169 3169 3170 3171 3172 3173 3173 3174 3175
3003 3007 3011 3015 3018 3022 3025 3028 3033 3038 3042 3046 3050 3054 3058 3061 3064 3067 3070 3073 3075 3077 3080 3082 3086 3088 3091 3094 3096 3099 3102 3104 3106 3109 3111 3112 3114 3116 3118 3120 3122 3124 3127 3129 3131 3133 3135 3136 3138 3140 3142 3144 3146 3148 3150 3152 3154 3155 3156 3158 3159 3160 3161 3162 3163 3164 3165 3166 3166 3166 3167 3166 3164 3166 3167 3167 3167 3167 3167 3167 3168 3168 3169 3170 3171 3171 3172 3172
3001 3005 3009 3013 3016 3020 3023 3027 3032 3036 3040 3044 3049 3053 3057 3060 3064 3066 3069 3074 3074 3075 3078 3081 3084 3087 3089 3092 3095 3097 3099 3101 3104 3107 3109 3111 3112 3115 3117 3118 3120 3122 3125 3128 3129 3130 3132 3134 3136 3139 3141 3143 3144 3146 3148 3150 3152 3154 3155 3156 3158 3159 3160 3161 3162 3163 3164 3164 3165 3165 3166 3166 3163 3163 3165 3166 3166 3166 3166 3166 3166 3167 3167 3168 3169 3169 3169 3170
2999 3003 3007 3011 3015 3019 3023 3028 3031 3035 3039 3044 3048 3052 3056 3059 3063 3065 3068 3073 3072 3072 3076 3079 3082 3085 3087 3090 3093 3095 3096 3098 3101 3103 3106 3109 3111 3113 3115 3117 3120 3122 3124 3125 3126 3128 3131 3133 3135 3137 3139 3140 3142 3145 3147 3149 3151 3152 3154 3155 3157 3158 3159 3160 3161 3162 3163 3163 3164 3163 3165 3165 3162 3161 3163 3164 3164 3164 3164 3164 3165 3165 3166 3166 3167 3167 3168 3168
2997 3001 3005 3009 3013 3018 3022 3026 3030 3035 3039 3044 3048 3052 3055 3059 3063 3065 3068 3069 3067 3069 3073 3077 3080 3083 3086 3089 3091 3093 3095 3097 3099 3101 3104 3107 3110 3112 3114 3117 3120 3122 3124 3125 3127 3129 3130 3132 3134 3136 3137 3139 3141 3144 3146 3148 3150 3151 3153 3154 3156 3158 3159 3160 3160 3161 3162 3162 3162 3162 3164 3164 3161 3159 3160 3161 3162 3162 3162 3162 3163 3163 3164 3164 3165 3165 3165 3166
2996 2999 3003 3008 3012 3016 3020 3025 3029 3034 3038 3042 3047 3050 3055 3058 3061 3064 3067 3065 3063 3067 3071 3074 3078 3080 3083 3086 3088 3091 3093 3095 3098 3100 3102 3105 3108 3111 3113 3116 3119 3121 3123 3125 3127 3128 3130 3132 3133 3134 3136 3138 3141 3143 3145 3147 3149 3150 3152 3153 3155 3157 3158 3159 3159 3160 3161 3160 3159 3161 3162 3162 3160 3157 3157 3159 3159 3159 3159 3160 3161 3161 3161 3162 3162 3163 3163 3164
2994 2997 3002 3006 3011 3015 3019 3023 3027 3031 3036 3040 3045 3049 3053 3056 3059 3061 3061 3060 3061 3065 3067 3071 3075 3078 3081 3083 3085 3088 3091 3094 3096 3098 3100 3103 3105 3108 3110 3113 3116 3119 3121 3123 3125 3127 3129 3130 3131 3133 3134 3136 3139 3141 3143 3145 3147 3149 3150 3152 3154 3156 3157 3158 3158 3159 3160 3159 3158 3159 3160 3161 3159 3156 3156 3157 3157 3157 3157 3158 3158 3159 3159 3160 3160 3161 3162 3162
2992 2996 3000 3005 3010 3014 3018 3023 3026 3030 3035 3039 3043 3046 3049 3054 3056 3055 3054 3056 3059 3061 3063 3067 3071 3075 3079 3082 3084 3086 3089 3092 3094 3096 3099 3101 3103 3104 3107 3109 3111 3114 3118 3120 3122 3125 3127 3129 3130 3131 3133 3134 3136 3139 3141 3143 3145 3147 3149 3150 3153 3155 3157 3157 3158 3159 3158 3157 3157 3157 3158 3158 3156 3154 3155 3156 3156 3156 3156 3156 3157 3157 3158 3158 3159 3160 3160 3161
2991 2995 2998 3003 3008 3013 3017 3021 3026 3029 3033 3037 3041 3044 3047 3050 3049 3047 3049 3052 3054 3056 3060 3065 3069 3073 3077 3079 3081 3084 3087 3090 3092 3094 3097 3099 3101 3103 3106 3108 3110 3111 3113 3116 3120 3123 3126 3127 3128 3129 3130 3132 3133 3135 3136 3139 3142 3144 3146 3148 3149 3152 3155 3156 3158 3158 3155 3154 3155 3157 3158 3155 3151 3152 3153 3154 3154 3154 3154 3155 3156 3156 3157 3157 3158 3159 3159 3160
2990 2993 2997 3001 3006 3010 3014 3019 3023 3027 3031 3035 3037 3041 3045 3044 3041 3042 3046 3049 3051 3054 3058 3062 3066 3071 3074 3076 3079 3082 3085 3087 3090 3092 3094 3097 3099 3101 3103 3106 3108 3110 3112 3115 3118 3119 3121 3123 3123 3125 3127 3129 3131 3133 3135 3137 3140 3142 3145 3146 3146 3147 3149 3151 3152 3152 3151 3152 3154 3156 3155 3151 3148 3149 3149 3150 3151 3152 3153 3154 3155 3155 3156 3157 3157 3158 3159 3159
2989 2992 2996 3000 3004 3008 3012 3016 3021 3025 3029 3032 3035 3038 3037 3035 3034 3038 3043 3046 3049 3052 3055 3060 3064 3068 3071 3073 3076 3080 3082 3084 3087 3091 3092 3093 3095 3097 3099 3101 3104 3107 3109 3112 3115 3117 3119 3119 3120 3122 3125 3127 3130 3132 3135 3138 3140 3141 3143 3144 3145 3145 3145 3146 3148 3148 3149 3151 3152 3152 3150 3147 3147 3148 3147 3148 3149 3150 3152 3153 3153 3154 3155 3156 3156 3157 3158 3158
2988 2990 2994 2998 3002 3006 3010 3014 3019 3023 3027 3029 3032 3033 3030 3028 3031 3035 3040 3044 3046 3048 3053 3058 3062 3065 3068 3071 3074 3077 3080 3082 3085 3088 3090 3092 3093 3094 3096 3099 3101 3103 3105 3108 3111 3113 3116 3117 3118 3121 3123 3126 3129 3131 3133 3135 3137 3139 3140 3140 3142 3143 3144 3146 3148 3149 3150 3150 3148 3148 3146 3145 3146 3147 3146 3147 3147 3149 3151 3151 3152 3153 3153 3154 3155 3156 3157 3157
2986 2989 2992 2996 3001 3005 3008 3012 3017 3021 3024 3027 3027 3026 3025 3027 3031 3035 3038 3042 3045 3048 3052 3055 3058 3061 3063 3066 3070 3073 3077 3080 3083 3085 3087 3089 3090 3091 3094 3096 3099 3101 3103 3106 3108 3109 3112 3114 3116 3118 3121 3123 3126 3128 3131 3132 3134 3135 3136 3137 3139 3143 3144 3145 3147 3149 3151 3151 3146 3143 3143 3143 3144 3144 3144 3145 3146 3147 3149 3149 3150 3151 3152 3152 3153 3154 3155 3156
2985 2988 2991 2994 2999 3003 3006 3010 3014 3018 3022 3024 3023 3022 3024 3027 3031 3034 3037 3040 3043 3047 3050 3052 3055 3058 3060 3062 3065 3069 3073 3076 3079 3081 3083 3085 3086 3087 3090 3093 3096 3099 3101 3104 3106 3108 3110 3113 3115 3117 3119 3122 3124 3126 3129 3130 3131 3132 3133 3135 3138 3140 3141 3142 3144 3146 3148 3149 3146 3141 3140 3140 3139 3140 3141 3142 3144 3145 3146 3147 3147 3148 3149 3150 3151 3152 3153 3154
2983 2987 2989 2992 2997 3001 3005 3008 3012 3016 3019 3019 3018 3020 3023 3027 3030 3033 3035 3038 3042 3045 3048 3050 3053 3056 3058 3060 3063 3066 3069 3072 3075 3077 3080 3082 3083 3083 3086 3090 3092 3096 3099 3102 3104 3106 3109 3111 3114 3116 3118 3120 3122 3124 3124 3125 3127 3130 3132 3135 3136 3137 3138 3139 3140 3140 3141 3145 3144 3140 3138 3135 3133 3136 3138 3140 3142 3142 3143 3144 3145 3146 3147 3148 3149 3150 3151 3152
2980 2983 2986 2990 2994 2999 3003 3007 3009 3013 3014 3014 3015 3018 3021 3025 3028 3031 3034 3037 3040 3043 3045 3048 3050 3053 3055 3058 3061 3064 3066 3069 3071 3074 3076 3078 3080 3081 3084 3087 3090 3093 3096 3100 3102 3105 3107 3109 3111 3114 3116 3118 3119 3119 3119 3120 3123 3126 3128 3131 3132 3134 3135 3136 3138 3138 3137 3140 3141 3139 3135 3131 3130 3133 3135 3137 3140 3140 3140 3142 3143 3145 3145 3146 3147 3148 3149 3150
2977 2981 2984 2988 2992 2996 3001 3004 3006 3009 3009 3009 3013 3017 3020 3023 3026 3029 3033 3035 3038 3040 3043 3046 3048 3050 3053 3055 3058 3061 3064 3066 3069 3071 3073 3074 3076 3078 3080 3084 3086 3090 3093 3096 3099 3102 3104 3107 3109 3111 3113 3114 3115 3116 3118 3120 3122 3123 3124 3126 3127 3129 3131 3134 3135 3134 3134 3135 3137 3137 3132 3128 3129 3132 3133 3135 3137 3137 3139 3140 3141 3143 3143 3144 3145 3146 3147 3148
2975 2979 2982 2985 2989 2994 2998 3000 3003 3005 3005 3006 3010 3014 3017 3021 3024 3027 3031 3033 3036 3039 3041 3044 3046 3049 3051 3053 3056 3059 3061 3064 3066 3068 3070 3071 3073 3076 3078 3081 3084 3087 3090 3093 3095 3098 3102 3104 3106 3108 3110 3112 3113 3115 3116 3119 3121 3123 3124 3124 3126 3127 3127 3128 3128 3128 3131 3133 3133 3135 3132 3126 3127 3130 3131 3132 3134 3135 3137 3138 3139 3140 3141 3141 3143 3144 3145 3145
2973 2976 2980 2984 2987 2991 2995 2997 2999 3001 3001 3004 3009 3012 3015 3019 3022 3025 3028 3031 3034 3036 3039 3042 3044 3046 3049 3051 3054 3056 3059 3061 3063 3065 3067 3069 3071 3074 3076 3079 3081 3085 3088 3090 3092 3096 3099 3102 3104 3107 3109 3111 3112 3113 3115 3117 3119 3120 3120 3121 3122 3123 3123 3125 3125 3126 3129 3130 3131 3134 3132 3125 3124 3128 3129 3130 3132 3134 3135 3136 3137 3138 3139 3140 3141 3142 3142 3143
2971 2975 2978 2982 2986 2988 2991 2993 2994 2996 2998 3001 3006 3009 3013 3017 3020 3023 3026 3029 3032 3034 3037 3039 3042 3044 3046 3049 3052 3054 3057 3059 3060 3062 3065 3066 3068 3072 3074 3076 3079 3082 3084 3086 3088 3091 3095 3097 3100 3104 3109 3111 3113 3114 3114 3114 3114 3114 3114 3116 3117 3119 3121 3123 3124 3126 3127 3126 3127 3130 3127 3121 3123 3125 3126 3128 3130 3132 3133 3134 3136 3137 3137 3138 3139 3139 3140 3140
2970 2973 2976 2980 2983 2985 2987 2989 2991 2993 2995 2999 3003 3007 3010 3014 3018 3021 3024 3027 3029 3032 3035 3037 3040 3042 3045 3047 3050 3052 3054 3056 3058 3060 3062 3064 3066 3069 3071 3074 3077 3079 3082 3084 3086 3089 3091 3092 3094 3097 3101 3104 3106 3105 3104 3104 3106 3108 3109 3111 3113 3115 3118 3120 3122 3124 3123 3121 3123 3123 3119 3118 3122 3123 3123 3126 3128 3129 3131 3132 3133 3134 3135 3136 3137 3137 3137 3137
2968 2970 2973 2976 2980 2982 2983 2986 2989 2991 2993 2996 3001 3004 3007 3011 3015 3019 3022 3025 3027 3030 3033 3035 3038 3040 3042 3045 3047 3050 3051 3053 3055 3056 3059 3061 3063 3065 3068 3071 3074 3077 3079 3082 3084 3087 3089 3090 3090 3091 3092 3093 3094 3095 3096 3098 3101 3103 3104 3106 3109 3111 3114 3117 3120 3120 3118 3118 3118 3116 3117 3118 3120 3121 3122 3124 3126 3127 3129 3130 3132 3133 3133 3134 3135 3134 3134 3134
2966 2968 2970 2973 2976 2979 2981 2984 2987 2989 2992 2995 2998 3001 3004 3008 3012 3016 3019 3022 3025 3027 3030 3033 3035 3037 3039 3041 3044 3046 3049 3050 3052 3054 3056 3058 3060 3063 3066 3069 3071 3074 3077 3080 3081 3084 3085 3086 3087 3088 3089 3090 3092 3093 3095 3097 3098 3100 3101 3103 3105 3108 3111 3113 3114 3113 3114 3116 3113 3110 3114 3116 3116 3118 3121 3122 3124 3126 3126 3128 3129 3130 3130 3131 3131 3132 3132 3132
2964 2966 2968 2971 2973 2975 2978 2981 2984 2987 2990 2994 2997 2999 3002 3005 3009 3012 3015 3019 3021 3024 3027 3029 3032 3034 3036 3039 3041 3043 3046 3047 3049 3051 3053 3055 3057 3060 3062 3065 3068 3071 3074 3076 3078 3080 3082 3082 3084 3086 3087 3089 3091 3092 3093 3094 3096 3098 3100 3101 3102 3105 3106 3107 3108 3108 3110 3110 3106 3106 3111 3113 3113 3117 3119 3119 3122 3123 3124 3125 3126 3127 3127 3128 3128 3129 3129 3130
2963 2965 2967 2970 2972 2974 2976 2979 2982 2985 2989 2992 2994 2997 2999 3002 3006 3009 3012 3015 3018 3021 3024 3026 3028 3031 3034 3037 3039 3040 3042 3044 3045 3047 3049 3052 3054 3056 3059 3062 3064 3067 3070 3073 3075 3077 3078 3079 3081 3083 3085 3086 3088 3089 3091 3092 3093 3094 3096 3098 3100 3102 3103 3103 3104 3104 3105 3105 3104 3105 3107 3108 3111 3114 3116 3118 3120 3121 3121 3122 3123 3124 3124 3124 3125 3125 3126 3127
2961 2963 2966 2968 2970 2973 2975 2977 2980 2983 2987 2989 2991 2994 2997 3000 3003 3007 3010 3013 3015 3018 3020 3023 3026 3029 3032 3034 3036 3038 3039 3041 3042 3044 3047 3050 3052 3054 3056 3058 3060 3063 3066 3069 3071 3073 3075 3076 3078 3080 3082 3082 3084 3086 3087 3088 3089 3091 3093 3095 3097 3098 3099 3098 3098 3099 3101 3101 3102 3104 3103 3102 3105 3111 3114 3116 3117 3117 3117 3118 3119 3120 3120 3120 3122 3122 3123 3124
2959 2961 2964 2966 2969 2971 2973 2976 2978 2981 2984 2986 2988 2991 2994 2997 3001 3005 3008 3010 3013 3015 3018 3021 3025 3027 3030 3032 3034 3035 3037 3039 3040 3043 3046 3047 3049 3052 3054 3056 3058 3060 3062 3065 3067 3069 3071 3072 3074 3076 3078 3078 3079 3082 3083 3084 3086 3088 3089 3090 3091 3091 3090 3090 3092 3094 3097 3098 3099 3101 3098 3096 3100 3107 3111 3112 3112 3113 3113 3113 3115 3116 3117 3117 3118 3119 3119 3120
2957 2959 2962 2965 2967 2969 2972 2974 2977 2979 2981 2984 2986 2989 2992 2995 2999 3002 3005 3008 3011 3014 3017 3020 3023 3025 3027 3030 3032 3033 3034 3036 3038 3041 3043 3045 3047 3049 3051 3053 3055 3057 3059 3061 3063 3065 3067 3068 3070 3072 3074 3074 3076 3078 3080 3083 3084 3082 3080 3081 3083 3083 3084 3087 3089 3091 3092 3094 3095 3095 3093 3094 3098 3103 3106 3107 3108 3109 3109 3110 3112 3113 3114 3114 3114 3115 3115 3115